TIME,DELAY(SENSOR),PRES,OXYGEN,RAWTEMP,T(OPTODE),TCPHASE,FLUOR,BETA(BETA700),BETA(BETA412),BETA(BETA440),CDOM,C(CSC),ED(ED412.20),ED(ED444.00),ED(ED489.60),ED(ED554.30),LU(LU412.10),LU(LU443.90),LU(LU489.70),LU(LU554.70),COMP,TILTX,TILTY,CHECK
1341286473,5807,882.4299926757812000,39.6784095764160160,563.6668701171875000,4.3721961975097660,55.5988807678222660,55,102,101,78,83,15567,0,0,0,0,2147122066,2147776091,2147576576,2147571812,823,3,13,61219
1341290069,5808,969.7700195312500000,43.3440895080566400,570.5352172851562000,4.1589279174804690,55.1328392028808600,56,102,101,79,82,15565,0,0,0,0,2147122624,2147780882,2147573165,2147575442,3534,3,13,64082
1341293669,5812,990.6400146484375000,44.1903991699218750,570.1105957031250000,4.1721248626708980,55.0094718933105500,56,100,103,79,84,15566,0,0,0,0,2147121654,2147776484,2147576146,2147572288,3468,3,13,41039
1341297269,5806,994.3800048828125000,44.1678009033203100,570.3624877929688000,4.1642951965332030,55.0163116455078100,56,99,102,78,84,15562,0,0,0,0,2147121664,2147776201,2147577252,2147572754,121,3,13,18556
1341300869,5809,999.7199707031250000,44.2549400329589840,570.9686279296875000,4.1454582214355470,55.0072898864746100,55,100,101,79,83,15563,0,0,0,0,2147123062,2147776054,2147567405,2147570998,110,3,13,15526
1341304469,5808,1000.3300170898438000,44.1475296020507800,571.1856079101562000,4.1387119293212890,55.0213584899902340,54,100,102,77,83,15564,0,0,0,0,2147121600,2147775826,2147578925,2147572571,289,3,13,17607
1341308069,5808,997.5200195312500000,43.8633308410644500,571.0314941406250000,4.1435008049011230,55.0610313415527340,55,101,102,80,83,15562,0,0,0,0,2147125421,2147772662,2147570962,2147573824,409,3,13,47830
1341311669,5811,999.4299926757812000,44.0402412414550800,572.4630737304688000,4.0989928245544430,55.0560417175293000,55,101,101,78,84,15564,0,0,0,0,2147121408,2147772132,2147575268,2147572434,685,3,13,18323
1341315269,5810,1005.3699951171875000,44.6000289916992200,572.6176757812500000,4.0941848754882810,54.9781112670898440,55,100,99,79,83,15563,0,0,0,0,2147123867,2147776265,2147573147,2147571894,469,3,13,1055
1341318869,5807,1001.8099975585938000,44.5319404602050800,572.8292236328125000,4.0876078605651855,54.9852409362793000,55,101,104,78,83,15562,0,0,0,0,2147120630,2147780086,2147572864,2147570331,106,3,13,41804
1341322469,5807,1003.4400024414062000,44.6101303100585940,573.1253051757812000,4.0784001350402830,54.9815406799316400,55,99,101,78,83,15560,0,0,0,0,2147122733,2147775762,2147572077,2147569664,3589,3,13,5687
1341326069,5809,1002.2700195312500000,44.2716102600097660,573.0584716796875000,4.0804748535156250,55.0253982543945300,54,104,103,78,83,15562,0,0,0,0,2147123657,2147776804,2147571254,2147572297,3430,3,13,37430
1341329669,5811,1009.8300170898438000,44.3149604797363300,572.9282226562500000,4.0845317840576170,55.0225486755371100,54,102,101,78,84,15556,0,0,0,0,2147123858,2147782674,2147573522,2147573540,3470,3,13,64169
1341333269,5809,1009.7899780273438000,44.1770210266113300,572.6538696289062000,4.0930600166320800,55.0376396179199200,56,103,102,78,84,15557,0,0,0,0,2147120722,2147781494,2147574564,2147574765,3137,3,13,26155
1341336869,5806,1010.7500000000000000,43.9344406127929700,572.0839843750000000,4.1107811927795410,55.0635681152343750,54,100,101,80,84,15560,0,0,0,0,2147122989,2147772809,2147573366,2147574720,3457,3,13,17278
1341340469,5809,1018.1300048828125000,44.1232299804687500,571.1810913085938000,4.1388511657714840,55.0325584411621100,54,100,101,79,83,15556,0,0,0,0,2147121810,2147776704,2147572790,2147570788,3543,3,13,34246
1341344069,5807,1011.0399780273438000,43.3252182006835940,571.0374145507812000,4.1433181762695310,55.1404609680175800,56,101,101,78,84,15559,0,0,0,0,2147123812,2147779794,2147572123,2147574939,974,3,13,37231
1341347669,5810,1020.6599731445312000,43.8562316894531250,571.1793823242188000,4.1389031410217285,55.0665817260742200,55,103,101,79,83,15552,0,0,0,0,2147124644,2147777234,2147571373,2147569654,3401,3,13,30049
1341351269,5813,1017.6799926757812000,43.9557304382324200,571.2290039062500000,4.1373629570007320,55.0539398193359400,55,100,101,78,84,15555,0,0,0,0,2147125220,2147777938,2147580041,2147573878,39,3,13,18414
1341354869,5809,1013.3300170898438000,43.8512916564941400,571.5919799804688000,4.1260781288146970,55.0718917846679700,55,100,100,78,83,15559,0,0,0,0,2147123794,2147774098,2147572772,2147571593,3584,3,13,62810
1341358469,5807,1007.6500244140625000,43.9624900817871100,574.1032104492188000,4.0479788780212400,55.0825881958007800,54,102,100,78,83,15557,0,0,0,0,2147121481,2147775670,2147573275,2147573522,3088,3,13,4707
1341362069,5809,1007.0999755859375000,44.6164093017578100,575.1121826171875000,4.0165839195251465,55.0038681030273440,55,100,101,78,83,15554,0,0,0,0,2147122002,2147776292,2147573138,2147570861,3462,3,13,18912
1341365669,5806,1016.0300292968750000,45.6526794433593750,575.5982055664062000,4.0014610290527340,54.8637313842773440,55,101,101,79,83,15553,0,0,0,0,2147124059,2147776630,2147573906,2147572105,3583,3,13,11736
1341369269,5813,1010.7299804687500000,44.5849418640136700,574.8406982421875000,4.0250339508056640,55.0020408630371100,54,98,102,79,83,15554,0,0,0,0,2147122797,2147779300,2147573440,2147571748,3410,3,13,49715
1341372869,5809,1015.7999877929688000,46.0069389343261700,575.3165283203125000,4.0102272033691410,54.8049507141113300,55,100,101,78,82,15553,0,0,0,0,2147122870,2147782656,2147574253,2147570971,3434,3,13,58656
1341376469,5810,1020.4500122070312000,44.6255798339843750,573.5822753906250000,4.0641860961914060,54.9837989807128900,55,104,100,79,84,15547,0,0,0,0,2147120256,2147780278,2147567981,2147571529,309,3,13,58060
1341380069,5810,1018.5499877929688000,44.2764587402343750,573.6317138671875000,4.0626468658447270,55.0359497070312500,55,100,101,78,82,15551,0,0,0,0,2147121755,2147780882,2147570340,2147572891,50,3,13,48803
1341383669,5811,1022.7700195312500000,44.3428688049316400,573.5736083984375000,4.0644550323486330,55.0208015441894500,55,100,101,79,83,15553,0,0,0,0,2147122669,2147778578,2147572964,2147571538,3348,3,13,48894
1341387269,5808,1021.5000000000000000,43.6690101623535160,571.7667236328125000,4.1206469535827640,55.0997695922851560,55,104,102,79,82,15552,0,0,0,0,2147120758,2147781357,2147571145,2147570870,3427,3,13,493
1341390869,5808,1022.2199707031250000,43.3519210815429700,571.4946289062500000,4.1291050910949710,55.1371192932128900,54,102,101,78,84,15550,0,0,0,0,2147121563,2147777106,2147569115,2147575515,84,3,13,31611
1341394469,5811,1023.2000122070312000,42.9955406188964840,571.7432250976562000,4.1213760375976560,55.1903495788574200,55,100,101,78,83,15542,0,0,0,0,2147123373,2147774354,2147571456,2147574665,3577,3,13,18408
1341398069,5807,1020.6799926757812000,43.5949401855468750,571.6754150390625000,4.1234860420227050,55.1078109741210940,55,99,102,79,83,15547,0,0,0,0,2147124653,2147775881,2147573046,2147572717,3583,3,13,51113
1341401669,5812,1020.3400268554688000,43.7871398925781250,572.7841796875000000,4.0890078544616700,55.0905914306640600,54,100,101,80,83,15546,0,0,0,0,2147124918,2147782838,2147572278,2147574710,69,3,13,48123
1341405269,5807,1015.8300170898438000,44.2260894775390600,573.5858154296875000,4.0640749931335450,55.0405006408691400,55,100,103,79,84,15544,0,0,0,0,2147120109,2147779419,2147569362,2147571309,3323,3,13,52323
1341408869,5811,1015.5499877929688000,44.5229492187500000,573.6586914062500000,4.0618081092834470,54.9981498718261700,56,100,101,80,84,15548,0,0,0,0,2147122861,2147777060,2147574500,2147573211,297,3,13,24514
1341412469,5809,1015.4699707031250000,44.0609893798828100,573.7265014648438000,4.0596981048583980,55.0674285888671900,55,100,102,78,84,15540,0,0,0,0,2147123776,2147779949,2147567488,2147572553,236,3,13,51064
1341416069,5809,1014.6099853515625000,44.1134300231933600,573.4868774414062000,4.0671520233154300,55.0591888427734400,55,98,102,78,85,15546,0,0,0,0,2147123099,2147775835,2147570340,2147572690,42,3,13,28942
1341419669,5810,1018.3499755859375000,43.8054008483886700,573.4260253906250000,4.0690479278564450,55.0979499816894500,55,99,100,77,84,15539,0,0,0,0,2147122176,2147776484,2147565869,2147572480,3572,3,13,50223
1341423269,5811,1017.2100219726562000,43.9496688842773440,573.8115844726562000,4.0570530891418460,55.0818710327148440,55,100,101,78,84,15543,0,0,0,0,2147122432,2147779373,2147570093,2147571913,29,3,13,60129
1341426869,5809,1018.7700195312500000,43.5792503356933600,573.4411010742188000,4.0685768127441410,55.1254005432128900,56,100,102,77,82,15542,0,0,0,0,2147122075,2147776027,2147573312,2147570002,829,3,13,65422
1341429955,5808,1020.4500122070312000,44.3555908203125000,573.0891113281250000,4.0795269012451170,55.0169982910156250,55,100,102,78,83,15540,0,0,0,0,2147123309,2147776192,2147570148,2147571355,3465,3,13,45483
